Find Local Weather

World > North America > United States > Wisconsin

Elton, Wisconsin Regional Weather

Lat: 45.15N, Lon: 88.84W
Wx Zone: WIZ019
Warning FLW WEATHER ALERT - (More Info. Click Here) Warning
Feedback
Expires:201901180600;;526621
ASUS43 KGRB 180511
RWRGRB

NORTH-CENTRAL AND NORTHEAST WISCONSIN REGIONAL WEATHER ROUNDUP
NATIONAL WEATHER SERVICE GREEN BAY WI
1100 PM CST THU JAN 17 2019


WIZ005-009-010>012-018-019-180600-
NORTH CENTRAL WISCONSIN
  
CITY           SKY/WX    TMP DP  RH WIND       PRES   REMARKS
IRONWOOD       CLOUDY     6  -3  66 SW8       30.07R WCI  -7          
MANITOWISH WTR FAIR      -6 -10  85 CALM      30.03S                  
ARBOR VITAE    FAIR       3  -2  79 CALM      30.02F                  
EAGLE RIVER    FAIR       1  -5  77 CALM      30.01S                  
LAND O LAKES   FAIR      -3  -6  85 CALM      30.02S                  
RHINELANDER    FAIR       9  -3  58 NW6       30.03R WCI  -1          
PHILLIPS       FAIR       4  -4  68 CALM      30.06R                  
ANTIGO         FAIR      10   5  79 NW6       30.04R WCI   1          
TOMAHAWK       FAIR       3  -1  84 CALM      30.06R                  
MERRILL        FAIR      11   2  66 CALM      30.08R                  
$$


SKY/WX - Weather  TMP - Temperature  DP - Dew Point  RH - Relative Humidity
WIND - Wind Direction/Speed PRES - Barometric Pressure